Location: Moy Burn
(57.3833°N, 4.0667°W)
Time: 10:17:41
(UTC+00:00)

GRACE-FO 1 - Pass Details

Date: 08 August 2020
Orbit: 483 x 503 km, 89.0° (Epoch: 19 September)

Event Time Altitude Azimuth Distance (km) Brightness Sun altitude
Rises 23:35:05 0° 359° (N) 2,575 9.9 -16.2°
Reaches altitude 10° 23:37:10 10° 359° (N) 1,691 8.6 -16.3°
Maximum altitude 23:40:51 89° 91° (E) 499 4.5 -16.3°
Enters shadow 23:42:13 37° 180° (S) 781 5.1 -16.4°
